Total_Precipitation_Accumulation
2.23 2.48 3.26 4.09 4.61 3.51 2.54 2.03 1.69 1.49 1.23 0.91 0.72 0.73 1.04 1.49 1.83 1.85 1.72 1.54 0.97 0.85 0.91 1.25 1.49 1.42 1.29 1.20 1.17 1.16 1.13 1.11 1.12 1.10 1.12 1.00 0.87 0.75 0.77 0.75 0.72 0.74 0.74 0.74 0.72 0.76 0.77 0.76 0.81
1.93 2.65 3.82 4.64 3.89 2.73 2.34 1.86 1.63 1.29 0.98 0.74 0.62 0.54 0.66 0.55 0.56 1.01 1.87 1.80 0.99 0.76 0.86 1.17 1.55 1.48 1.39 1.34 1.33 1.29 1.17 1.07 1.06 1.00 0.97 0.93 0.89 0.81 0.81 0.86 0.75 0.75 0.73 0.72 0.68 0.69 0.75 0.77 0.86
2.22 3.09 4.27 4.31 3.00 2.32 2.28 1.73 1.30 0.91 0.67 0.69 0.67 0.54 0.63 0.79 0.92 1.38 1.75 1.30 0.91 0.78 0.85 1.29 1.68 1.52 1.43 1.40 1.49 1.41 1.26 1.12 1.02 0.94 0.93 0.90 0.93 0.92 0.96 0.90 0.83 0.81 0.79 0.76 0.81 0.81 0.86 0.89 0.96
2.48 3.53 3.86 3.25 2.47 1.90 1.65 1.38 1.06 0.91 0.63 0.41 0.51 0.66 0.59 0.85 1.04 1.24 1.20 0.89 0.69 0.68 0.74 1.14 1.64 1.51 1.37 1.32 1.44 1.36 1.21 1.19 1.10 1.03 1.01 1.01 1.08 1.18 1.07 1.00 0.97 0.89 0.88 0.83 0.88 0.92 0.98 1.01 1.02
2.74 3.51 3.47 3.07 2.30 1.97 1.48 1.17 0.99 0.96 0.75 0.48 0.46 0.72 0.77 1.09 1.14 1.12 1.04 0.88 0.70 0.68 0.70 0.96 1.43 1.42 1.27 1.22 1.30 1.28 1.22 1.23 1.11 1.05 1.06 1.08 1.12 1.27 1.34 1.22 1.11 1.05 1.02 0.97 0.95 0.94 0.93 0.97 1.07
3.15 3.23 3.26 3.06 2.48 2.18 1.70 1.26 0.91 0.82 0.69 0.55 0.51 0.73 0.99 1.39 1.30 1.22 1.05 1.02 0.90 0.78 0.68 0.81 1.23 1.29 1.20 1.22 1.25 1.24 1.19 1.11 0.98 0.99 1.04 1.06 1.07 1.19 1.34 1.30 1.22 1.19 1.12 1.11 1.09 1.07 1.02 1.01 1.03
2.92 2.88 2.59 2.20 2.33 2.46 1.76 1.12 1.04 0.96 0.88 0.77 0.54 0.78 1.08 1.45 1.29 1.04 1.03 1.15 1.26 1.13 0.95 0.89 0.96 1.00 1.10 1.20 1.22 1.33 1.35 1.14 0.97 0.92 0.93 0.93 0.95 1.01 1.11 1.16 1.15 1.13 1.14 1.14 1.13 1.11 1.09 1.12 1.08
2.39 2.44 2.19 2.11 2.35 2.50 1.51 0.99 0.83 0.78 0.79 0.53 0.45 0.70 0.88 1.09 1.16 1.07 1.04 1.15 1.18 1.15 1.11 1.04 1.04 0.99 0.99 1.06 1.25 1.47 1.57 1.37 1.09 0.96 0.89 0.92 0.89 0.90 1.02 1.04 1.13 1.17 1.21 1.25 1.26 1.22 1.15 1.22 1.22
2.04 2.35 2.39 2.32 2.25 1.98 1.19 0.90 0.71 0.50 0.52 0.46 0.36 0.52 0.66 0.71 0.89 1.06 1.10 1.14 1.10 1.06 1.07 1.02 1.03 1.06 1.15 1.18 1.24 1.48 1.62 1.55 1.18 0.97 0.95 0.87 0.74 0.87 0.94 0.90 1.17 1.29 1.38 1.40 1.41 1.33 1.22 1.20 1.22
2.09 2.27 2.14 1.75 1.54 1.27 0.97 0.84 0.67 0.68 0.76 0.62 0.45 0.54 0.66 0.72 0.80 0.93 0.98 0.92 0.90 0.89 0.90 0.90 0.90 0.89 0.92 0.97 1.28 1.50 1.37 1.44 1.15 1.09 1.02 0.94 0.98 1.03 0.88 0.86 1.13 1.30 1.40 1.38 1.34 1.33 1.24 1.11 0.95
1.76 1.86 1.54 1.34 1.14 0.92 0.86 0.80 0.61 0.72 0.87 0.66 0.47 0.53 0.66 0.78 0.87 0.84 0.86 0.82 0.76 0.76 0.68 0.64 0.67 0.67 0.69 0.79 0.94 1.21 1.45 1.49 1.43 1.37 1.28 1.22 1.13 0.97 0.86 0.88 0.94 1.06 1.15 1.09 1.16 1.18 1.09 1.01 0.95
1.54 1.47 1.27 1.15 0.86 0.89 0.89 0.75 0.66 0.63 0.65 0.48 0.43 0.48 0.61 0.80 0.92 0.85 0.84 0.84 0.80 0.82 0.79 0.64 0.55 0.56 0.56 0.60 0.73 0.95 1.16 1.30 1.30 1.22 1.12 1.31 1.26 1.04 0.94 1.01 1.05 1.07 1.14 1.29 1.33 1.28 1.17 1.06 0.97
1.42 1.48 1.19 0.98 0.85 0.90 0.84 0.76 0.65 0.66 0.54 0.43 0.43 0.55 0.73 0.84 0.92 0.92 0.88 0.89 0.86 0.87 0.89 0.78 0.58 0.49 0.51 0.54 0.60 0.66 0.89 1.03 1.03 1.17 1.13 1.17 1.17 1.05 0.96 0.97 1.12 1.11 1.15 1.35 1.44 1.29 1.21 1.24 1.18
1.25 1.21 1.15 0.99 0.91 0.92 0.92 0.75 0.64 0.76 0.66 0.55 0.60 0.69 0.83 0.88 0.88 0.86 0.81 0.79 0.77 0.77 0.79 0.74 0.64 0.59 0.54 0.52 0.51 0.54 0.59 0.75 0.77 0.79 0.78 0.97 1.10 1.08 1.10 1.01 1.09 1.24 1.29 1.31 1.34 1.30 1.23 1.22 1.25
1.03 1.11 1.25 1.15 1.10 1.06 0.93 0.97 0.75 0.76 0.77 0.66 0.64 0.68 0.88 0.84 0.80 0.76 0.72 0.66 0.61 0.63 0.64 0.67 0.68 0.69 0.65 0.64 0.63 0.58 0.60 0.63 0.70 0.78 0.78 0.89 1.01 1.08 1.10 1.00 1.03 1.20 1.39 1.35 1.31 1.26 1.29 1.17 1.14
1.18 1.45 1.71 1.40 1.20 1.17 1.06 1.17 0.85 0.85 0.80 0.69 0.65 0.62 0.71 0.62 0.61 0.61 0.58 0.54 0.51 0.48 0.47 0.55 0.58 0.62 0.66 0.68 0.71 0.66 0.70 0.72 0.69 0.76 0.74 0.76 0.92 1.08 1.17 1.10 1.06 1.22 1.41 1.56 1.61 1.46 1.41 1.32 1.26
1.49 1.59 1.52 1.42 1.14 1.16 1.08 1.09 0.92 0.80 0.74 0.63 0.61 0.61 0.57 0.51 0.48 0.47 0.45 0.43 0.39 0.37 0.34 0.38 0.45 0.51 0.57 0.64 0.71 0.71 0.74 0.88 0.95 0.86 0.73 0.77 0.89 1.01 1.22 1.32 1.26 1.29 1.45 1.50 1.51 1.54 1.46 1.45 1.41
1.20 1.20 1.20 1.26 1.06 0.99 0.96 0.88 0.89 0.75 0.60 0.53 0.52 0.51 0.49 0.46 0.38 0.37 0.36 0.36 0.34 0.32 0.30 0.32 0.40 0.41 0.43 0.53 0.68 0.78 0.75 0.84 1.06 1.10 1.09 1.12 1.17 1.22 1.38 1.49 1.48 1.48 1.54 1.51 1.63 1.83 1.65 1.48 1.50
0.89 0.90 0.93 0.86 0.74 0.85 0.85 0.79 0.83 0.76 0.62 0.49 0.43 0.44 0.41 0.39 0.38 0.33 0.30 0.32 0.30 0.27 0.25 0.29 0.35 0.38 0.39 0.46 0.57 0.67 0.77 0.95 1.15 1.21 1.28 1.42 1.44 1.44 1.57 1.69 1.73 1.66 1.58 1.64 1.81 2.17 2.06 1.70 1.54
0.82 0.80 0.84 0.75 0.65 0.68 0.77 0.81 0.79 0.72 0.64 0.52 0.43 0.34 0.30 0.33 0.29 0.24 0.25 0.26 0.23 0.21 0.20 0.24 0.33 0.42 0.47 0.52 0.66 0.80 1.03 1.14 1.29 1.44 1.43 1.45 1.51 1.54 1.61 1.83 1.96 1.88 1.87 1.97 2.01 2.25 2.40 2.12 1.92
0.80 0.73 0.67 0.70 0.67 0.65 0.70 0.90 0.85 0.77 0.64 0.52 0.43 0.33 0.25 0.30 0.27 0.19 0.19 0.22 0.20 0.18 0.20 0.25 0.38 0.59 0.78 0.86 1.08 1.35 1.61 1.68 1.62 1.62 1.67 1.65 1.67 1.74 1.71 1.83 2.03 2.01 1.97 2.03 2.22 2.52 2.81 2.72 2.44
0.80 0.55 0.48 0.59 0.71 0.80 0.66 0.93 0.81 0.75 0.68 0.53 0.44 0.37 0.29 0.32 0.33 0.24 0.23 0.22 0.20 0.22 0.30 0.47 0.69 0.99 1.23 1.37 1.55 1.76 1.87 1.91 1.84 1.85 1.84 1.82 1.73 1.66 1.66 1.79 2.00 2.14 2.23 2.30 2.37 2.37 2.72 2.96 2.79
0.63 0.50 0.48 0.58 0.68 0.70 0.59 0.72 0.68 0.60 0.66 0.57 0.52 0.47 0.41 0.40 0.36 0.33 0.34 0.35 0.39 0.48 0.67 0.96 1.21 1.44 1.60 1.65 1.73 1.91 2.06 2.22 2.24 2.13 1.98 1.86 1.83 1.76 1.67 1.73 1.80 1.84 1.94 2.07 2.19 2.27 2.50 2.68 2.82
0.52 0.57 0.61 0.62 0.70 0.79 0.56 0.56 0.67 0.56 0.55 0.59 0.60 0.52 0.46 0.43 0.42 0.48 0.60 0.71 0.82 0.91 1.08 1.29 1.43 1.57 1.57 1.57 1.62 1.75 1.93 2.09 2.12 2.14 2.12 1.98 1.85 1.74 1.64 1.59 1.67 1.69 1.70 1.85 1.96 2.07 2.31 2.49 2.60
0.57 0.72 0.89 0.90 0.88 0.76 0.47 0.55 0.59 0.42 0.39 0.47 0.53 0.52 0.47 0.44 0.51 0.69 0.84 0.97 1.09 1.18 1.27 1.30 1.30 1.34 1.36 1.37 1.41 1.47 1.54 1.58 1.64 1.75 1.68 1.55 1.44 1.38 1.37 1.28 1.33 1.46 1.52 1.70 1.78 1.72 1.78 1.97 2.19
0.52 0.54 0.77 0.88 0.79 0.68 0.52 0.68 0.61 0.43 0.39 0.37 0.41 0.48 0.56 0.67 0.76 0.88 0.98 1.07 1.11 1.23 1.28 1.23 1.20 1.19 1.12 1.06 1.11 1.12 1.16 1.21 1.23 1.25 1.21 1.13 1.09 1.06 1.03 1.02 1.02 1.09 1.17 1.39 1.61 1.59 1.60 1.67 1.78
0.44 0.43 0.45 0.61 0.59 0.63 0.58 0.68 0.61 0.42 0.38 0.37 0.37 0.46 0.61 0.79 1.02 1.19 1.19 1.09 1.00 1.05 1.12 1.09 1.05 1.00 0.91 0.85 0.88 0.91 0.96 0.98 0.96 0.94 0.88 0.87 0.81 0.81 0.79 0.82 0.90 0.96 0.95 1.04 1.18 1.37 1.44 1.51 1.59
0.34 0.37 0.47 0.69 0.80 0.81 0.69 0.75 0.70 0.52 0.45 0.41 0.45 0.58 0.74 0.91 1.10 1.37 1.50 1.37 1.10 0.92 0.95 0.90 0.87 0.89 0.87 0.82 0.84 0.84 0.76 0.69 0.68 0.71 0.65 0.64 0.69 0.72 0.72 0.69 0.71 0.78 0.80 0.88 0.99 1.05 1.16 1.24 1.40
0.35 0.40 0.50 0.65 0.66 0.87 1.11 1.11 0.82 0.70 0.61 0.58 0.64 0.71 0.79 1.02 1.30 1.43 1.47 1.34 1.16 0.88 0.81 0.79 0.76 0.78 0.84 0.77 0.79 0.80 0.68 0.55 0.50 0.49 0.47 0.46 0.50 0.57 0.57 0.59 0.66 0.67 0.69 0.70 0.72 0.77 0.83 0.90 1.00
0.32 0.39 0.53 0.81 0.82 0.77 0.98 1.03 0.65 0.68 0.77 0.71 0.77 0.86 0.89 0.94 0.97 0.98 1.08 1.09 1.01 0.88 0.80 0.85 0.89 0.89 0.81 0.73 0.71 0.69 0.60 0.51 0.49 0.45 0.41 0.42 0.47 0.50 0.50 0.55 0.59 0.58 0.64 0.67 0.67 0.67 0.69 0.79 0.88